Weather History for KCKC - December, 2013

Change the Weather History Date:

Tuesday, December 17, 2013

  Actual Average Record
Temperature  
Mean Temperature 6 °F -  
Max Temperature 15 °F 19 °F 32 °F (1997)
Min Temperature -2 °F 6 °F -11 °F (2004)
Degree Days  
Heating Degree Days 58    
Moisture  
Dew Point 1 °F    
Average Humidity 75    
Maximum Humidity 86    
Minimum Humidity 61    
Precipitation  
Precipitation 0.00 in - - ()
Sea Level Pressure  
Sea Level Pressure 29.72 in    
Wind  
Wind Speed 7 mph (WNW)    
Max Wind Speed 15 mph    
Max Gust Speed 23 mph    
Visibility 8 miles    
Events Snow    
Averages and records for this station are not official NWS values.
T = Trace of Precipitation, MM = Missing Value Source: NWS Daily Summary

Daily Weather History Graph

Daily Weather History Graph

Search for Another Location

Airport or City:

Trip Planner

Search our weather history database for the weather conditions in past years. The results will help you decide how hot, cold, wet, or windy it might be!

Date:

Astronomy

Dec. 17, 2013 Rise Set
Actual Time 7:45 AM CST 4:09 PM CST
Civil Twilight 7:09 AM CST 4:46 PM CST
Nautical Twilight 6:29 AM CST 5:25 PM CST
Astronomical Twilight 5:52 AM CST 6:03 PM CST
Moon 4:54 PM CST (12/17) 7:37 AM CST (12/17)
Length of Visible Light 9h 36m
Length of Day
8h 24m
Full, 100% of the Moon is Illuminated
Dec 17
Full
Dec 25
Last Quarter
Jan 1
New
Jan 7
First Quarter
Jan 15
Full

Hourly Weather History & Observations

Time (CST) Temp. Windchill Dew Point Humidity Pressure Visibility Wind Dir Wind Speed Gust Speed Precip Events Conditions
12:13 AM 10.4 °F -0.4 °F 6.8 °F 85% 29.64 in 10.0 mi WSW 6.9 mph - N/A   Clear
12:34 AM 8.6 °F 2.0 °F 3.2 °F 79% 29.63 in 10.0 mi SW 3.5 mph - N/A   Scattered Clouds
12:53 AM 8.6 °F -1.3 °F 5.0 °F 85% 29.63 in 10.0 mi West 5.8 mph - N/A   Scattered Clouds
1:13 AM 8.6 °F 0.1 °F 3.2 °F 79% 29.63 in 10.0 mi WSW 4.6 mph - N/A   Scattered Clouds
1:34 AM 6.8 °F - 3.2 °F 85% 29.63 in 10.0 mi Calm Calm - N/A   Scattered Clouds
1:53 AM 6.8 °F -0.1 °F 1.4 °F 79% 29.63 in 10.0 mi South 3.5 mph - N/A   Scattered Clouds
2:14 AM 5.0 °F - -0.4 °F 78% 29.63 in 10.0 mi Calm Calm - N/A   Clear
2:33 AM 6.8 °F -0.1 °F 1.4 °F 79% 29.63 in 10.0 mi WSW 3.5 mph - N/A   Scattered Clouds
2:54 AM 6.8 °F -0.1 °F 3.2 °F 85% 29.62 in 10.0 mi WSW 3.5 mph - N/A   Overcast
3:14 AM 6.8 °F -2.0 °F 3.2 °F 85% 29.62 in 10.0 mi West 4.6 mph - N/A   Mostly Cloudy
3:33 AM 6.8 °F - 3.2 °F 85% 29.61 in 10.0 mi Calm Calm - N/A   Scattered Clouds
3:54 AM 6.8 °F -3.5 °F 1.4 °F 79% 29.61 in 10.0 mi West 5.8 mph - N/A   Scattered Clouds
4:13 AM 6.8 °F -3.5 °F 1.4 °F 79% 29.62 in 10.0 mi West 5.8 mph - N/A   Clear
4:33 AM 8.6 °F 0.1 °F 3.2 °F 79% 29.61 in 10.0 mi WSW 4.6 mph - N/A   Scattered Clouds
4:54 AM 8.6 °F 0.1 °F 3.2 °F 79% 29.61 in 10.0 mi WSW 4.6 mph - N/A   Clear
5:13 AM 10.4 °F 2.2 °F 6.8 °F 85% 29.61 in 10.0 mi West 4.6 mph - N/A   Mostly Cloudy
5:33 AM 12.2 °F 4.3 °F 8.6 °F 85% 29.61 in 10.0 mi WSW 4.6 mph - N/A   Overcast
5:54 AM 12.2 °F 4.3 °F 8.6 °F 85% 29.61 in 10.0 mi WSW 4.6 mph - N/A   Overcast
6:14 AM 12.2 °F 2.9 °F 8.6 °F 85% 29.61 in 10.0 mi West 5.8 mph - N/A   Mostly Cloudy
6:33 AM 10.4 °F 0.8 °F 6.8 °F 85% 29.61 in 10.0 mi West 5.8 mph - N/A   Scattered Clouds
6:53 AM 10.4 °F -1.5 °F 6.8 °F 85% 29.61 in 10.0 mi WNW 8.1 mph - N/A   Clear
7:13 AM 12.2 °F 0.7 °F 8.6 °F 85% 29.61 in 10.0 mi West 8.1 mph - N/A   Scattered Clouds
7:34 AM 12.2 °F 0.7 °F 8.6 °F 85% 29.62 in 7.0 mi WNW 8.1 mph - N/A Snow Light Snow
7:54 AM 14.0 °F 2.0 °F 10.4 °F 86% 29.63 in 2.5 mi West 9.2 mph 18.4 mph N/A Snow Light Snow
8:13 AM 14.0 °F 2.0 °F 10.4 °F 86% 29.64 in 7.0 mi WNW 9.2 mph 16.1 mph N/A Snow Light Snow
8:33 AM 15.8 °F 6.1 °F 10.4 °F 79% 29.64 in 7.0 mi WNW 6.9 mph - N/A Snow Light Snow
8:53 AM 15.8 °F 4.2 °F 10.4 °F 79% 29.65 in 2.5 mi NW 9.2 mph - N/A Snow Light Snow
9:13 AM 15.8 °F 3.4 °F 10.4 °F 79% 29.65 in 2.5 mi NW 10.4 mph 17.3 mph N/A Snow Light Snow
9:33 AM 15.8 °F 1.4 °F 10.4 °F 79% 29.66 in 2.5 mi NW 13.8 mph 18.4 mph N/A Snow Light Snow
9:53 AM 14.0 °F -0.8 °F 8.6 °F 79% 29.68 in 5.0 mi NW 13.8 mph 18.4 mph N/A Snow Light Snow
10:14 AM 15.8 °F 5.1 °F 8.6 °F 73% 29.68 in 10.0 mi NW 8.1 mph - N/A   Scattered Clouds
10:34 AM 15.8 °F 4.2 °F 8.6 °F 73% 29.68 in 10.0 mi NW 9.2 mph 16.1 mph N/A   Clear
10:53 AM 15.8 °F 6.1 °F 8.6 °F 73% 29.69 in 5.0 mi WNW 6.9 mph - N/A Snow Light Snow
11:14 AM 15.8 °F 2.1 °F 8.6 °F 73% 29.69 in 1.8 mi WNW 12.7 mph 17.3 mph N/A Snow Light Snow
11:33 AM 14.0 °F 2.0 °F 6.8 °F 73% 29.69 in 3.0 mi NW 9.2 mph 20.7 mph N/A   Haze
11:54 AM 12.2 °F -3.7 °F 5.0 °F 73% 29.69 in 7.0 mi NW 15.0 mph 20.7 mph N/A   Scattered Clouds
12:14 PM 12.2 °F -2.5 °F 5.0 °F 73% 29.70 in 2.0 mi WNW 12.7 mph 20.7 mph N/A Snow Light Snow
12:33 PM 10.4 °F -6.0 °F 1.4 °F 67% 29.71 in 7.0 mi WNW 15.0 mph 23.0 mph N/A   Scattered Clouds
12:54 PM 10.4 °F -2.4 °F 1.4 °F 67% 29.71 in 4.0 mi NW 9.2 mph 21.9 mph N/A   Haze
1:13 PM 10.4 °F -2.4 °F 1.4 °F 67% 29.71 in 1.5 mi NW 9.2 mph - N/A Snow Light Snow
1:34 PM 8.6 °F -6.3 °F -0.4 °F 67% 29.72 in 5.0 mi WNW 11.5 mph 17.3 mph N/A   Haze
1:53 PM 8.6 °F -6.3 °F -0.4 °F 67% 29.72 in 7.0 mi West 11.5 mph 19.6 mph N/A   Overcast
2:13 PM 8.6 °F -8.3 °F -0.4 °F 67% 29.73 in 4.0 mi West 15.0 mph 21.9 mph N/A   Haze
2:34 PM 6.8 °F -7.8 °F -2.2 °F 67% 29.74 in 4.0 mi NW 10.4 mph 21.9 mph N/A   Haze
2:53 PM 6.8 °F -5.9 °F -4.0 °F 61% 29.75 in 10.0 mi WNW 8.1 mph 20.7 mph N/A   Overcast
3:13 PM 6.8 °F -8.6 °F -4.0 °F 61% 29.76 in 7.0 mi WNW 11.5 mph 18.4 mph N/A   Overcast
3:34 PM 5.0 °F -10.8 °F -4.0 °F 66% 29.78 in 7.0 mi NW 11.5 mph 17.3 mph N/A   Overcast
3:53 PM 5.0 °F -8.1 °F -4.0 °F 66% 29.78 in 5.0 mi WNW 8.1 mph 20.7 mph N/A   Haze
4:13 PM 3.2 °F -13.1 °F -5.8 °F 66% 29.79 in 10.0 mi WNW 11.5 mph 20.7 mph N/A   Scattered Clouds
4:34 PM 3.2 °F -9.1 °F -5.8 °F 66% 29.80 in 10.0 mi WNW 6.9 mph - N/A   Clear
4:54 PM 1.4 °F -12.5 °F -5.8 °F 72% 29.80 in 10.0 mi WNW 8.1 mph - N/A   Clear
5:13 PM 1.4 °F -9.9 °F -5.8 °F 72% 29.81 in 10.0 mi WNW 5.8 mph - N/A   Clear
5:34 PM 1.4 °F -9.9 °F -5.8 °F 72% 29.82 in 10.0 mi WNW 5.8 mph - N/A   Scattered Clouds
5:54 PM 1.4 °F -9.9 °F -5.8 °F 72% 29.83 in 10.0 mi WNW 5.8 mph - N/A   Mostly Cloudy
6:13 PM 1.4 °F -9.9 °F -5.8 °F 72% 29.83 in 10.0 mi WNW 5.8 mph - N/A   Overcast
6:34 PM 3.2 °F -9.1 °F -5.8 °F 66% 29.83 in 10.0 mi WNW 6.9 mph - N/A   Overcast
6:53 PM 3.2 °F -9.1 °F -5.8 °F 66% 29.84 in 10.0 mi WNW 6.9 mph - N/A   Overcast
7:14 PM 3.2 °F -11.3 °F -5.8 °F 66% 29.84 in 10.0 mi WNW 9.2 mph - N/A   Overcast
7:33 PM 3.2 °F -11.3 °F -5.8 °F 66% 29.84 in 10.0 mi WNW 9.2 mph 16.1 mph N/A   Overcast
7:53 PM 3.2 °F -9.1 °F -5.8 °F 66% 29.84 in 10.0 mi WNW 6.9 mph - N/A   Overcast
8:14 PM 1.4 °F -14.5 °F -5.8 °F 72% 29.83 in 7.0 mi WNW 10.4 mph 17.3 mph N/A   Overcast
8:33 PM 1.4 °F -13.5 °F -5.8 °F 72% 29.83 in 10.0 mi WNW 9.2 mph 21.9 mph N/A   Scattered Clouds
8:54 PM 1.4 °F -14.5 °F -7.6 °F 66% 29.84 in 10.0 mi WNW 10.4 mph 18.4 mph N/A   Clear
9:13 PM -0.4 °F -14.7 °F -7.6 °F 72% 29.84 in 7.0 mi WNW 8.1 mph 17.3 mph N/A   Scattered Clouds
9:33 PM -0.4 °F -18.4 °F -7.6 °F 72% 29.85 in 10.0 mi West 12.7 mph 18.4 mph N/A   Scattered Clouds
9:54 PM -0.4 °F -16.7 °F -7.6 °F 72% 29.85 in 10.0 mi WNW 10.4 mph 19.6 mph N/A   Scattered Clouds
10:13 PM -0.4 °F -14.7 °F -7.6 °F 72% 29.86 in 10.0 mi WNW 8.1 mph - N/A   Scattered Clouds
10:33 PM -0.4 °F -16.7 °F -7.6 °F 72% 29.86 in 10.0 mi WNW 10.4 mph - N/A   Scattered Clouds
10:54 PM -2.2 °F -16.8 °F -7.6 °F 78% 29.86 in 10.0 mi WNW 8.1 mph - N/A   Clear
11:13 PM -2.2 °F -15.6 °F -9.4 °F 71% 29.86 in 10.0 mi WNW 6.9 mph - N/A   Clear
11:33 PM -2.2 °F -14.2 °F -9.4 °F 71% 29.86 in 10.0 mi WNW 5.8 mph - N/A   Scattered Clouds
11:54 PM -2.2 °F -14.2 °F -9.4 °F 71% 29.85 in 10.0 mi WNW 5.8 mph - N/A Snow Light Snow